Location: Gilevgi
(36.8751°N, 30.0581°E)
Time: 03:04:47
(UTC+00:00)

NOSS 2-3 (D) - Visible Passes

Search period start: 17 March 2026 00:00
Search period end: 27 March 2026 00:00
Orbit: 497 x 1701 km, 63.3° (Epoch: 24 April)

Date Brightness Start Highest point End Pass type
(mag) Time Alt. Az. Time Alt. Az. Time Alt. Az.
17 Mar 4.6 01:40:18 65° S 01:40:18 65° S 01:46:58 10° SSE visible
17 Mar 6.2 03:27:05 11° W 03:29:09 12° WSW 03:31:55 10° SW visible
17 Mar 5.7 17:12:05 10° W 17:15:01 21° NW 17:17:56 10° N visible
18 Mar 6.4 00:48:46 22° SE 00:48:46 22° SE 00:51:30 10° SE visible
18 Mar 5.7 02:35:34 25° SW 02:35:34 25° SW 02:40:25 10° SSW visible
19 Mar 6.3 01:44:08 21° S 01:44:08 21° S 01:46:44 10° S visible
19 Mar 6.2 17:13:46 10° WNW 17:15:13 12° NW 17:16:40 10° NNW visible
